Regional Weather Roundup
Issued by NWS

Home | Current Version | Previous Version | Text Only | Print | Product List | Glossary On
Versions: 1 2 3 4 5 6 7 8 9 10 11 12 13 14 15 16 17 18 19 20 21 22 23 24 25 26 27 28 29 30 31 32 33 34 35 36 37 38 39 40 41 42 43 44 45 46 47 48 49 50
000
ASUS43 KMPX 280201
RWRMN
WEATHER ROUNDUP FOR MINNESOTA
NATIONAL WEATHER SERVICE TWIN CITIES/CHANHASSEN MN
800 PM CST SAT DEC 27 2014


NOTE: "FAIR" INDICATES FEW OR NO CLOUDS BELOW 12,000 FEET WITH NO
SIGNIFICANT WEATHER AND/OR OBSTRUCTIONS TO VISIBILITY. N/A MEANS
CURRENT SKY AND/OR WEATHER CONDITIONS ARE NOT AVAILABLE.

MNZ060>063-068>070-280300-
   Twin Cities Metro

CITY           SKY/WX    TMP DP  RH WIND       PRES   REMARKS
TWIN CITIES    PTCLDY    13   6  74 SW7       30.12F WCI   3
ST PAUL        CLEAR     13   6  74 CALM      30.14S
CRYSTAL        MOCLDY    14   7  73 SW7       30.10F WCI   4
BLAINE         MOCLDY    16  10  79 SW7       30.09F WCI   6
LAKEVILLE      CLEAR      9   3  78 W3        30.12S
EDEN PRAIRIE   CLEAR     10   4  76 SW7       30.11F WCI  -1
SOUTH ST PAUL  CLEAR     14   7  75 CALM      30.12F
LAKE ELMO      FAIR      14   9  79 SW5       30.11F WCI   6
$$
MNZ001>005-007-008-013>017-022>024-027-028-280300-
   Northwest Minnesota

CITY           SKY/WX    TMP DP  RH WIND       PRES   REMARKS
BEMIDJI        FLURRIES  16  13  86 CALM      29.99S
HALLOCK        CLOUDY    10   7  85 N10       30.07R WCI  -3
ROSEAU         CLOUDY    12   7  79 NW12      30.03R WCI  -2
WARROAD        CLOUDY    10   5  79 NW10      30.02R WCI  -3
THIEF RVR FALL CLOUDY    16  12  86 CALM      30.02S
CROOKSTON      LGT SNOW  16  14  93 CALM      30.04F
FOSSTON        LGT SNOW  16  14  93 W3        30.01S
DETROIT LAKES  PTCLDY    21  19  93 SW6       30.01S WCI  14
MOORHEAD       CLOUDY    23  21  93 SW6       30.05R WCI  16
PARK RAPIDS    CLOUDY    20  14  77 SW7       29.99S WCI  11
MAHNOMEN       LGT SNOW  19  17  90 SW7       30.00S WCI  10
$$
MNZ006-009>011-018-025>026-280300-
   North Central Minnesota

CITY           SKY/WX    TMP DP  RH WIND       PRES   REMARKS
BAUDETTE       LGT SNOW  14   9  80 VRB7      29.99R WCI   4
FLAG ISLAND    MOCLDY     7   1  78 NW16      30.01R WCI -11
INTL FALLS     LGT SNOW  12   7  80 W7        29.97R WCI   1
WASKISH        LGT SNOW  16  12  86 W12       30.00R WCI   3
BIG FORK       CLOUDY    16   9  73 SW5       29.98S WCI   9
LONGVILLE      CLOUDY    18  14  86 W7        30.01S WCI   8
GRAND RAPIDS   CLOUDY    18   7  62 NW7       29.98S WCI   8
CRANE LAKE     CLOUDY    12   7  79 W5        29.99R WCI   4
ORR            CLOUDY    12   5  73 CALM      29.94S
COOK           CLEAR     14   7  73 W5        29.97R WCI   6
WALKER         CLOUDY    17  12  80 SW6       29.99S WCI   9
$$
MNZ012-019>021-037-280300-
   Northeast Minnesota

CITY           SKY/WX    TMP DP  RH WIND       PRES   REMARKS
DULUTH         MOCLDY    21   7  54 W10       29.96S WCI  10
ELY            PTCLDY    16   7  67 W7        29.94S WCI   6
HIBBING        CLOUDY    18   7  62 W5        29.97S WCI  11
EVELETH        PTCLDY    18   9  68 W6        29.98R WCI   9
DULUTH HARBOR  CLOUDY    25  10  54 SW3       30.03S
TWO HARBORS    CLOUDY    25   9  50 W7        29.96R WCI  17
SILVER BAY     CLOUDY    21   9  58 W3        29.94S
GRAND MARAIS     N/A     22  11  62 W9        29.96S WCI  12
G MARAIS ARPRT CLOUDY    12   5  73 W7        29.88S WCI   2
$$
MNZ029>031-032-039>041-046>048-054>057-064-280300-
   West Central Minnesota

CITY           SKY/WX    TMP DP  RH WIND       PRES   REMARKS
FERGUS FALLS   CLOUDY    21  16  79 SW7       30.08S WCI  13
WHEATON        CLOUDY    19  16  86 CALM      30.08F
MORRIS         MOCLDY    18  14  86 SW5       30.06S WCI  11
ALEXANDRIA     CLOUDY    17  13  84 W7        30.04F WCI   8
ELBOW LAKE     CLOUDY    20  17  88 SW6       30.04F WCI  12
WADENA         CLOUDY    19  16  86 SW6       30.02S WCI  11
GLENWOOD       MOCLDY    12  10  92 SW5       30.05F WCI   4
APPLETON       MOCLDY    18  12  79 SW8       30.09S WCI   7
BENSON         PTCLDY    16  12  86 W7        30.08S WCI   6
ORTONVILLE     CLOUDY    18  12  79 W6        30.08S WCI   9
MADISON        CLEAR     16  10  79 SW7       30.10F WCI   6
WILLMAR        FAIR      18  12  79 SW10      30.10S WCI   6
$$
MNZ033>034-036-042>043-049>051-058-059-280300-
   Central Minnesota

CITY           SKY/WX    TMP DP  RH WIND       PRES   REMARKS
ST CLOUD       CLEAR     17   9  70 SW5       30.07S WCI  10
SAUK CENTRE    MOCLDY    12   9  85 SW3       30.06S
PAYNESVILLE    CLEAR     10   8  92 S3        30.08S
AITKIN         MOCLDY    21  14  73 W5        30.01S WCI  15
PINE RIVER     CLOUDY    19  14  79 W3        30.05S
BRAINERD       CLOUDY    20  13  74 W7        30.03S WCI  11
STAPLES        CLOUDY    19  16  86 W6        30.03S WCI  11
LITTLE FALLS   MOCLDY    16  10  79 CALM      30.06S
LITCHFIELD     CLEAR     14  10  85 SW5       30.09S WCI   6
BUFFALO        CLEAR     12   7  81 CALM      30.11S
MAPLE LAKE     CLEAR     13  10  87 CALM      30.09F
$$
MNZ037-044-045-052-053-280300-
   East Central Minnesota

CITY           SKY/WX    TMP DP  RH WIND       PRES   REMARKS
PRINCETON      CLEAR     16  10  79 CALM      30.08R
MORA           CLEAR     18   9  68 W6        30.07R WCI   9
CAMBRIDGE      CLEAR     18   9  68 SW6       30.07R WCI   9
RUSH CITY      PTCLDY    17   9  70 SW9       30.07R WCI   6
MOOSE LAKE     MOCLDY    21   9  58 W8        30.01R WCI  12
HINCKLEY       FAIR      21  10  63 CALM      30.05R
CLOQUET        CLOUDY    21   7  53 SW6       29.98S WCI  14
MCGREGOR       CLEAR     21  14  73 W8        30.02R WCI  12
$$
MNZ071>073-080-081-089-090-097-098-280300-
   Southwest Minnesota

CITY           SKY/WX    TMP DP  RH WIND       PRES   REMARKS
MONTEVIDEO     CLEAR     16  12  86 W8        30.11F WCI   5
GRANITE FALLS  CLEAR     14  10  85 S8        30.13F WCI   3
CANBY          CLEAR     18  14  82 SW10G17   30.11F WCI   6
MARSHALL       CLEAR     12   5  73 SW20      30.10F WCI  -6
REDWOOD FALLS  PTCLDY    13   7  77 W13       30.12S WCI  -2
OLIVIA         CLEAR     12  10  92 SW9       30.11S WCI   0
PIPESTONE      CLEAR      7   3  85 W8        30.11S WCI  -6
WINDOM         CLEAR     10   7  85 W8        30.13S WCI  -1
WORTHINGTON    CLEAR     10 -33  12 W7        30.13S WCI   0
JACKSON        CLEAR     12   7  79 W9        30.13S WCI   0
TRACY          CLEAR     12   8  84 SW15      30.12S WCI  -4
SLAYTON        CLEAR      9   6  87 SW6       30.12S WCI   0
$$
MNZ065>067-074>077-082>085-091>093-280300-
   South Central Minnesota

CITY           SKY/WX    TMP DP  RH WIND       PRES   REMARKS
MANKATO        FAIR      12   5  73 SW9       30.13S WCI   0
NEW ULM        CLEAR      9   3  78 SW7       30.13S WCI  -3
ST JAMES       CLEAR     16   9  73 SW15      30.14F WCI   1
FAIRMONT       CLEAR     14   7  73 W15       30.13S WCI  -1
GLENCOE        PTCLDY    10   7  87 SW5       30.11S WCI   2
FARIBAULT      CLEAR      9   5  85 S6        30.13S WCI  -1
OWATONNA       CLEAR      9   3  78 S7        30.12S WCI  -3
ALBERT LEA     CLEAR     12   9  85 SW5       30.13F WCI   4
$$
MNZ078>079-086>088-094>096-280300-
   Southeast Minnesota

CITY           SKY/WX    TMP DP  RH WIND       PRES   REMARKS
ROCHESTER      CLEAR      8   3  80 W10       30.11F WCI  -6
RED WING       CLEAR     12   7  79 CALM      30.13R
STANTON        CLEAR     11   5  78 S5        30.12S WCI   3
DODGE CENTER   PTCLDY     9   3  78 W9        30.10F WCI  -5
WINONA         CLEAR     19  14  79 W7        30.15S WCI  10
AUSTIN         FAIR       9   5  85 SW5       30.13S WCI   0
PRESTON        CLEAR     10   5  82 W8        30.13S WCI  -3
$$
ABBREVIATIONS USED IN REMARKS
   TC - TEMPERATURES IN CELSIUS
  WCI - WIND CHILL INDEX
   HX - HEAT INDEX
  VSB - VISIBILITY
$$


USA.gov is the U.S. government's official web portal to all federal, state and local government web resources and services.